TimeICT,TemperatureF,Dew PointF,Humidity,Sea Level PressureIn,VisibilityMPH,Wind Direction,Wind SpeedMPH,Gust SpeedMPH,PrecipitationIn,Events,Conditions,WindDirDegrees,DateUTC
12:00 AM,75.2,71.6,89,29.86,6.2,Calm,Calm,-,N/A,,Mostly Cloudy,0,2013-09-06 17:00:00
12:30 AM,75.2,73.4,94,29.86,6.2,Calm,Calm,-,N/A,,Mostly Cloudy,0,2013-09-06 17:30:00
1:00 AM,76,72,86,29.87,6,Calm,Calm,,,,Scattered Clouds,,2013-09-06 18:00:00
1:00 AM,75.2,73.4,94,29.86,6.2,Calm,Calm,-,N/A,,Mostly Cloudy,0,2013-09-06 18:00:00
1:30 AM,75.2,73.4,94,29.86,6.2,Calm,Calm,-,N/A,,Mostly Cloudy,0,2013-09-06 18:30:00
2:00 AM,75.2,73.4,94,29.83,6.2,Calm,Calm,-,N/A,,Mostly Cloudy,0,2013-09-06 19:00:00
3:00 AM,75.2,73.4,94,29.83,6.2,Calm,Calm,-,N/A,,Mostly Cloudy,0,2013-09-06 20:00:00
3:30 AM,75.2,73.4,94,29.83,6.2,Calm,Calm,-,N/A,,Mostly Cloudy,0,2013-09-06 20:30:00
4:00 AM,75.2,73.4,94,29.83,6.2,Calm,Calm,-,N/A,,Mostly Cloudy,0,2013-09-06 21:00:00
4:30 AM,73.4,71.6,94,29.83,6.2,Calm,Calm,-,N/A,,Mostly Cloudy,0,2013-09-06 21:30:00
5:00 AM,73.4,71.6,94,29.83,6.2,Calm,Calm,-,N/A,,Mostly Cloudy,0,2013-09-06 22:00:00
5:30 AM,73.4,71.6,94,29.83,6.2,Calm,Calm,-,N/A,,Mostly Cloudy,0,2013-09-06 22:30:00
6:00 AM,73.4,71.6,94,29.86,6.2,Calm,Calm,-,N/A,,Mostly Cloudy,0,2013-09-06 23:00:00
6:30 AM,75.2,73.4,94,29.86,6.2,Calm,Calm,-,N/A,,Mostly Cloudy,0,2013-09-06 23:30:00
7:00 AM,75,73,91,29.89,6,Calm,Calm,,,,Partly Cloudy,,2013-09-07 00:00:00
7:00 AM,75.2,73.4,94,29.89,6.2,Calm,Calm,-,N/A,,Mostly Cloudy,0,2013-09-07 00:00:00
7:30 AM,77.0,73.4,89,29.89,6.2,South,4.6,-,N/A,,Mostly Cloudy,190,2013-09-07 00:30:00
8:00 AM,78.8,73.4,83,29.89,6.2,South,5.8,-,N/A,,Mostly Cloudy,170,2013-09-07 01:00:00
8:30 AM,80.6,73.4,79,29.92,6.2,SSE,4.6,-,N/A,,Mostly Cloudy,160,2013-09-07 01:30:00
9:00 AM,80.6,73.4,79,29.92,6.2,ESE,3.5,-,N/A,,Mostly Cloudy,120,2013-09-07 02:00:00
9:30 AM,82.4,75.2,79,29.92,6.2,SSE,4.6,-,N/A,,Mostly Cloudy,150,2013-09-07 02:30:00
10:00 AM,82.4,73.4,74,29.89,6.2,South,5.8,-,N/A,,Mostly Cloudy,180,2013-09-07 03:00:00
10:30 AM,82.4,73.4,74,29.89,6.2,South,6.9,-,N/A,,Mostly Cloudy,190,2013-09-07 03:30:00
11:00 AM,82.4,73.4,74,29.89,6.2,SSW,4.6,-,N/A,,Mostly Cloudy,200,2013-09-07 04:00:00
11:30 AM,84.2,73.4,70,29.86,6.2,SSE,5.8,-,N/A,,Overcast,160,2013-09-07 04:30:00
12:00 PM,86.0,73.4,66,29.86,6.2,SW,5.8,-,N/A,,Overcast,220,2013-09-07 05:00:00
12:30 PM,87.8,75.2,66,29.83,6.2,South,6.9,-,N/A,,Overcast,170,2013-09-07 05:30:00
1:00 PM,87.8,73.4,62,29.83,6.2,South,5.8,-,N/A,,Overcast,180,2013-09-07 06:00:00
1:30 PM,87.8,71.6,58,29.80,6.2,SSW,11.5,-,N/A,,Overcast,200,2013-09-07 06:30:00
2:00 PM,86.0,73.4,66,29.80,6.2,South,6.9,-,N/A,,Mostly Cloudy,190,2013-09-07 07:00:00
2:30 PM,86.0,75.2,70,29.77,6.2,South,9.2,-,N/A,,Mostly Cloudy,180,2013-09-07 07:30:00
3:00 PM,86.0,75.2,70,29.77,6.2,SSW,6.9,-,N/A,,Mostly Cloudy,200,2013-09-07 08:00:00
3:30 PM,87.8,75.2,66,29.77,6.2,SSW,9.2,-,N/A,,Mostly Cloudy,200,2013-09-07 08:30:00
4:00 PM,86.0,73.4,66,29.77,5.6,SW,8.1,-,N/A,,Mostly Cloudy,220,2013-09-07 09:00:00
4:30 PM,84.2,73.4,70,29.77,5.6,WSW,6.9,-,N/A,,Mostly Cloudy,240,2013-09-07 09:30:00
5:00 PM,78.8,69.8,74,29.77,5.6,East,4.6,-,N/A,,Mostly Cloudy,90,2013-09-07 10:00:00
5:30 PM,78.8,71.6,78,29.80,6.2,East,3.5,-,N/A,Rain,Light Rain,100,2013-09-07 10:30:00
6:00 PM,78.8,71.6,78,29.80,6.2,SSE,3.5,-,N/A,,Mostly Cloudy,150,2013-09-07 11:00:00
6:30 PM,78.8,71.6,78,29.83,6.2,Calm,Calm,-,N/A,Rain,Light Rain,0,2013-09-07 11:30:00
7:00 PM,77,73,85,29.85,6,South,3.5,,,Rain,Light Rain,180,2013-09-07 12:00:00
7:00 PM,77.0,73.4,89,29.83,6.2,South,3.5,-,N/A,Rain,Light Rain,180,2013-09-07 12:00:00
7:30 PM,77.0,73.4,89,29.83,6.2,Calm,Calm,-,N/A,Rain,Light Rain,0,2013-09-07 12:30:00
8:00 PM,77.0,73.4,89,29.86,6.2,Calm,Calm,-,N/A,Rain,Light Rain,0,2013-09-07 13:00:00
8:30 PM,77.0,75.2,94,29.86,5.0,ESE,2.3,-,N/A,Rain,Light Rain,120,2013-09-07 13:30:00
9:00 PM,77.0,75.2,94,29.89,5.0,Calm,Calm,-,N/A,Rain,Light Rain,0,2013-09-07 14:00:00
9:30 PM,77.0,75.2,94,29.89,5.0,Calm,Calm,-,N/A,Rain,Light Rain,0,2013-09-07 14:30:00
10:00 PM,77.0,75.2,94,29.89,5.6,Calm,Calm,-,N/A,Rain,Light Rain,0,2013-09-07 15:00:00
10:30 PM,77.0,73.4,89,29.89,6.2,Calm,Calm,-,N/A,,Mostly Cloudy,0,2013-09-07 15:30:00
11:00 PM,77.0,73.4,89,29.89,6.2,Calm,Calm,-,N/A,,Mostly Cloudy,0,2013-09-07 16:00:00
11:30 PM,75.2,73.4,94,29.89,6.2,Calm,Calm,-,N/A,,Mostly Cloudy,0,2013-09-07 16:30:00